Regional Weather Roundup
Issued by NWS Wakefield, VA

Home | Current Version | Previous Version | Text Only | Print | Product List | Glossary On
Versions: 1 2 3 4 5 6 7 8 9 10 11 12 13 14 15 16 17 18 19 20 21 22 23 24 25 26 27 28 29 30 31 32 33 34 35 36 37 38 39 40 41 42 43 44 45 46 47 48 49 50
000
ASUS41 KAKQ 201010
RWRAKQ

REGIONAL WEATHER ROUNDUP
NATIONAL WEATHER SERVICE WAKEFIELD VA
600 AM EDT WED AUG 20 2014

Note: "fair" indicates few or no clouds below 12,000 feet with no
significant weather and/or obstructions to visibility. * = Denotes
station may not report precipitation (e.g., rain,snow,etc.),
thunder or fog.

VAZ042-051-052>054-056-201100-
NORTHERN VIRGINIA

CITY           SKY/WX    TMP DP  RH WIND       PRES   REMARKS
WASH NATIONAL  MOCLDY    74  63  68 CALM      29.94R
DULLES         CLOUDY    68  66  94 CALM      29.95R
FORT BELVOIR   MOCLDY    67  65  96 SE1       29.94R
QUANTICO       PTCLDY    72  67  84 S7        29.95R
FREDERICKSBRG* PTCLDY    68  68 100 CALM      29.93R FOG
STAFFORD*      CLEAR     66  66 100 CALM      29.98R FOG
WARRENTON      CLOUDY    69  69 100 CALM      29.94R FOG
CULPEPER*      CLOUDY   N/A N/A N/A CALM      29.95R FOG
MANASSAS*      CLOUDY    70  70 100 CALM      29.94R
LEESBURG*      CLOUDY    72  72 100 S5        29.95R
WINCHESTER     MOCLDY    66  64  94 SW3       29.94R FOG
$$

VAZ048-049-060>072-079>083-201100-
CENTRAL AND SOUTH CENTRAL VIRGINIA...AND NORTH CENTRAL NORTH CAROLINA

CITY           SKY/WX    TMP DP  RH WIND       PRES   REMARKS
RICHMOND       PTCLDY    70  68  93 NE3       29.94R
CHESTERFIELD*  CLOUDY   N/A N/A N/A CALM      29.95R
HANOVER        FOG       66  66 100 CALM      29.96R VSB 1/4
TAPPAHANNOCK*  FOG       65  63  93 CALM      29.95R VSB 1/2
CHARLOTTSVILLE MOCLDY    71  69  93 S6        29.95R
ORANGE*        FOG       68  68 100 CALM      29.97R VSB 1/2
LOUISA*        FOG       66  64  94 CALM      29.94R VSB 1/2
FARMVILLE*     CLOUDY    72  70  94 CALM      29.94R FOG
SOUTH HILL*    FOG       72  72 100 CALM      30.00R VSB 1/4
ROANOKE RAPIDS FOG       70  70 100 CALM      29.93R VSB 1/4
RALEIGH        FOG       73  70  90 E6        29.94R VSB 1/2
$$

VAZ088>098-201100-
SOUTHEAST VIRGINIA

CITY           SKY/WX    TMP DP  RH WIND       PRES   REMARKS
NORFOLK        CLOUDY    75  69  81 NE10      29.90R
VIRGINIA BEACH CLOUDY    75  70  84 NE7       29.89R
NORFOLK NAVAL  MOCLDY    76  70  82 NE9       29.92R
WEST POINT*    CLEAR     69  66  92 CALM      29.95R
NEWPORT NEWS   MOCLDY    74  69  85 N5        29.92R
LANGLEY AFB    CLOUDY    73  73 100 NE6       29.91R
FORT EUSTIS    PTCLDY    72  72 100 N3        29.91R
WILLIAMSBURG*  CLEAR     72  70  94 N3        29.94R
FRANKLIN*      MOCLDY    70 N/A N/A NW5       29.92R
WAKEFIELD      PTCLDY    70  67  90 CALM      29.93R FOG
$$

VAZ020-022-025-037-045-201100-
WESTERN AND SOUTHWEST VIRGINIA

CITY           SKY/WX    TMP DP  RH WIND       PRES   REMARKS
STAUNTON*      CLOUDY    67  65  93 CALM      29.98R
HOT SPRINGS VA NOT AVBL
LYNCHBURG      MOCLDY    70  70 100 CALM      29.98R
DANVILLE       MOCLDY    71  68  90 E3        29.95S FOG
MARTINSVILLE   CLOUDY    70  70 100 CALM      29.99R
ROANOKE        PTCLDY    65  63  93 CALM      30.00R
BLACKSBURG     FOG       66  66 100 CALM      30.04R VSB<1/4
DUBLIN*        FOG       66  66 100 CALM      30.04R VSB 1/2
MARION*        CLOUDY    67  66  96 SW7       30.07R FOG
HILLSVILLE*    FOG       62  62 100 SW3       30.05R VSB 1/4
RICHLANDS*     FOG       67  65  94 SE5       30.04S VSB<1/4
WISE*          PTCLDY    68  68 100 SW3       30.04S FOG
ABINGDON*      CLEAR     67  67 100 CALM      30.02S FOG
$$

MDZ021>025-VAZ099-100-201100-
SOUTHERN MARYLAND AND THE DELMARVA PENINSULA

CITY           SKY/WX    TMP DP  RH WIND       PRES   REMARKS
PATUXENT RIVER PTCLDY    64  62  93 CALM      29.94R
BAY BRIDGE APT   N/A     68  64  88 SE3       29.94R
LEONARDTOWN    CLEAR     64  61  88 CALM      29.95R
DOVER          MOCLDY    64  64 100 N2        29.93R
GEORGETOWN     CLEAR     63  60  90 VRB6      29.94R
EASTON         CLEAR     65  65 100 CALM      29.98R
CAMBRIDGE      CLEAR     63  59  88 CALM      29.94R
SALISBURY      CLEAR     66  62  87 CALM      29.93R
OCEAN CITY     CLEAR     72  65  78 E6        29.93R
WALLOPS ISLAND CLEAR     66  64  93 N5        29.93R
ACCOMACK*      CLEAR     63  61  94 N3        29.92R FOG
$$

NCZ012>017-030>032-201100-
EASTERN NORTH CAROLINA

CITY           SKY/WX    TMP DP  RH WIND       PRES   REMARKS
ELIZABETH CITY CLEAR     74  72  93 N8        29.89R
AHOSKIE*       CLEAR     69  68  96 CALM      29.93R
EDENTON*       PTCLDY    70  69  97 N5        29.90R FOG
CURRITUCK*     CLOUDY    76  72  88 N5        29.90R
KILL DEVIL HLS CLEAR     75  73  93 CALM      29.87R
MANTEO         MOCLDY    75  73  94 NE5       29.87R
CAPE HATTERAS  PTCLDY    75  74  96 NE3       29.86R
GOLDSBORO      CLEAR     73  72  99 N3        29.91R
WASHINGTON     CLOUDY    71  71  99 N3        29.91R VSB 1/2
GREENVILLE     RAIN      72  72 100 N3        29.94R VSB 1/2
NEW BERN       CLOUDY    75  72  88 N3        29.91R
WILMINGTON     CLEAR     74  73  97 CALM      29.90R
$$

VAZ048-201100-
ELSEWHERE

CITY           SKY/WX    TMP DP  RH WIND       PRES   REMARKS
HARRISBURG PA  CLOUDY    70  64  81 E6        29.93R
BALTIMORE      MOCLDY    65  63  93 CALM      29.93R
ANNAPOLIS      CLOUDY    70  66  87 CALM      29.93R
ANDREWS AFB    PTCLDY    64  64  99 SE3       29.94R
WILMINGTON DE  MOCLDY    71  66  84 E6        29.95S
PHILADELPHIA   MOCLDY    71  64  78 SE3       29.95S
WILDWOOD NJ*   CLEAR     64  61  88 CALM      29.95R
ATLANTIC CITY  PTCLDY    63  62  97 CALM      29.95R
HENDERSON NC   FOG       71  69  95 CALM      29.95R VSB 3/4
GREENSBORO     MOCLDY    71  70  96 E3        29.95R
ROCKY MOUNT    FOG       72  71  97 N5        29.93R VSB 3/4
FAYETTEVILLE   CLEAR     73  72  96 W5        29.91R
CHARLOTTE      PTCLDY    70  67  90 NW3       29.94R
$$

VAZ100-201100-
MARINE

STATION/POSITION TIME  TEMP    WIND        PRES    WAVE   SWELL
                       AIR SEA DIR/SP/G            HT/PER HT/PER
                 (UTC) (F)     (DEG/KT/KT) (MB)    (FT/S) (FT/S)
44066 TX TWR #4  1000   71 72   50/ 10/ 12 1013.6R   3/ 6   2/ 6
CAPE MAY NJ      1000   69 79   30/  2/  3 1013.1R
LEWES DE         1000   71 74   90/  3/  4 1013.1S
15NM E FENWICK I 1000   74 74              1013.0R   3/ 6
OCEAN-CITY-INLET 1000   73 75   80/  5/  7 1012.8R
WACHAPREAGUE VA  1000   69 78  350/  3/  5 1012.7S
THOMAS POINT MD  1000   73 77  120/  7/  7 1014.3R
GOOSES REEF MD   1000   74     120/  6/  8 1014.1R
COVE POINT MD    1000   72     110/  5/  6 1013.5R
SOLOMONS ISLAND  1000      80                N/A
BISHOPS HEAD MD  1000   70 77   40/  4/  7 1012.9R
PINEY POINT MD   1000           80/  3/  4   N/A
POTOMAC MD       1000   74      90/  6/  8 1012.7R
CAMBRIDGE MD     1000   69 78   30/  1/  2 1013.1S
LEWISETTA VA     1000   74 78   50/  4/  7 1013.2R
RAPPAHANNOCK LGT 1000           40/ 10/ 11 1013.5R
STINGRAY PT      1000   75      80/ 10/ 12 1013.6R
YORK RVR RNG VA  1000   76      60/ 10/ 11 1012.4R
YORKTOWN VA      1000   74 79   20/  7/  8 1012.6R
JAMESTOWN VA     1000   70      30/  6/  8   N/A
DOMINION TERM VA 1000   75      50/  2/  6 1012.5R
KIPTOPEKE VA     1000      81   30/  4/  5   N/A
CHES BAY BRIDGE  1000   76 78   40/ 12/ 14 1011.8R
CAPE HENRY VA    1000   76      40/ 12/ 13 1011.2R
CHESAPEAKE LGHT  0900   76      50/ 12/ 13 1012.5R
WILLOUBY STN VA  1000   76      50/ 10/ 11 1011.3R
S CRANEY ISL VA  1000           20/  8/  9 1012.2R
CAPE HENRY BUOY  1000      76                N/A     3/ 6
1ST LANDING BUOY 1000   76      50/ 10/ 12 1012.1R
CAPE CHARLES BUO 1000      77                N/A     3/ 6   2/ 6
OFFSHORE WE BUOY 1000      76                N/A     4/ 6   3/13
64NM E OF VA BCH 1000   77 78   40/ 12/ 14 1011.1R   3/ 6   2/ 6
DUCK PIER NC     1000   77 78   40/ 12/ 13 1010.8R
44056 DUCK FRF   1000                        N/A     3/ 5
OREGON INLET NC  1000   75 81  340/  3/  4 1011.2S
HATTERAS NC      1000   80 82   20/  5/  7 1011.3R
DIAMOND SHLS NC  1000   78     320/  8/ 10 1010.5R   2/ 6   2/ 6
CAPE LOOKOUT NC  0900   79     350/  7/  7 1011.1R
$$



USA.gov is the U.S. government's official web portal to all federal, state and local government web resources and services.